TimeIST,TemperatureF,Dew PointF,Humidity,Sea Level PressureIn,VisibilityMPH,Wind Direction,Wind SpeedMPH,Gust SpeedMPH,PrecipitationIn,Events,Conditions,WindDirDegrees,DateUTC
12:10 AM,80.6,68.0,65,29.89,1.6,ESE,6.9,-,N/A,,Smoke,120,2013-11-18 18:40:00
12:40 AM,80.6,68.0,65,29.89,1.6,ESE,5.8,-,N/A,,Smoke,120,2013-11-18 19:10:00
1:10 AM,80.6,66.2,61,29.89,1.6,East,4.6,-,N/A,,Smoke,90,2013-11-18 19:40:00
1:40 AM,80.6,64.4,58,29.89,1.6,East,4.6,-,N/A,,Smoke,90,2013-11-18 20:10:00
2:30 AM,76,65,62,29.88,1,Calm,Calm,,,,Haze,,2013-11-18 21:00:00
2:40 AM,80.6,62.6,54,29.89,1.9,NE,4.6,-,N/A,,Smoke,40,2013-11-18 21:10:00
3:10 AM,80.6,62.6,54,29.86,1.9,Calm,Calm,-,N/A,,Smoke,0,2013-11-18 21:40:00
3:40 AM,80.6,60.8,51,29.86,1.9,NNE,3.5,-,N/A,,Smoke,30,2013-11-18 22:10:00
4:10 AM,80.6,60.8,51,29.86,1.9,NNE,4.6,-,N/A,,Smoke,20,2013-11-18 22:40:00
4:40 AM,80.6,60.8,51,29.86,1.9,East,2.3,-,N/A,,Smoke,100,2013-11-18 23:10:00
5:10 AM,80.6,59.0,48,29.86,1.9,East,3.5,-,N/A,,Smoke,80,2013-11-18 23:40:00
5:30 AM,76,60,48,29.88,1,East,2.3,,,,Haze,90,2013-11-19 00:00:00
5:40 AM,80.6,60.8,51,29.89,1.9,ENE,2.3,-,N/A,,Smoke,70,2013-11-19 00:10:00
6:10 AM,78.8,59.0,51,29.89,1.9,ENE,3.5,-,N/A,,Smoke,60,2013-11-19 00:40:00
6:40 AM,78.8,59.0,51,29.92,1.6,Variable,2.3,-,N/A,,Smoke,0,2013-11-19 01:10:00
7:10 AM,80.6,59.0,48,29.92,1.4,Variable,2.3,-,N/A,,Smoke,0,2013-11-19 01:40:00
7:40 AM,80.6,60.8,51,29.92,1.3,SSE,4.6,-,N/A,,Smoke,160,2013-11-19 02:10:00
8:10 AM,82.4,60.8,48,29.92,1.2,SE,3.5,-,N/A,,Smoke,130,2013-11-19 02:40:00
8:30 AM,79,61,44,29.94,1,Calm,Calm,,,,Smoke,,2013-11-19 03:00:00
8:40 AM,84.2,60.8,45,29.95,1.4,ESE,4.6,-,N/A,,Smoke,120,2013-11-19 03:10:00
9:10 AM,86.0,59.0,40,29.95,1.4,ESE,6.9,-,N/A,,Smoke,120,2013-11-19 03:40:00
9:40 AM,87.8,59.0,38,29.95,1.6,East,4.6,-,N/A,,Smoke,90,2013-11-19 04:10:00
10:10 AM,89.6,57.2,33,29.95,1.6,ESE,6.9,-,N/A,,Smoke,120,2013-11-19 04:40:00
10:40 AM,91.4,59.0,34,29.95,1.6,East,5.8,-,N/A,,Smoke,100,2013-11-19 05:10:00
11:10 AM,91.4,57.2,31,29.95,1.6,East,5.8,-,N/A,,Smoke,100,2013-11-19 05:40:00
11:30 AM,91,60,26,29.94,1,Calm,Calm,,,,Smoke,,2013-11-19 06:00:00
11:40 AM,91.4,57.2,31,29.92,1.7,East,3.5,-,N/A,,Smoke,100,2013-11-19 06:10:00
12:10 PM,93.2,59.0,32,29.92,1.7,SSW,3.5,-,N/A,,Smoke,200,2013-11-19 06:40:00
1:10 PM,93.2,64.4,38,29.86,1.6,West,9.2,-,N/A,,Smoke,260,2013-11-19 07:40:00
1:40 PM,91.4,62.6,38,29.86,1.6,West,10.4,-,N/A,,Smoke,260,2013-11-19 08:10:00
2:30 PM,92,67,33,29.86,1,NW,4.6,,,,Smoke,320,2013-11-19 09:00:00
2:40 PM,91.4,62.6,38,29.83,2.2,West,10.4,-,N/A,,Smoke,270,2013-11-19 09:10:00
3:10 PM,91.4,66.2,43,29.83,2.2,West,10.4,-,N/A,,Smoke,280,2013-11-19 09:40:00
3:40 PM,91.4,64.4,41,29.83,2.5,WNW,11.5,-,N/A,,Smoke,300,2013-11-19 10:10:00
4:10 PM,89.6,66.2,46,29.83,2.2,WNW,11.5,-,N/A,,Smoke,300,2013-11-19 10:40:00
4:40 PM,89.6,66.2,46,29.83,2.2,NW,9.2,-,N/A,,Smoke,320,2013-11-19 11:10:00
5:30 PM,86,66,41,29.85,1,NW,6.9,,,,Smoke,320,2013-11-19 12:00:00
5:40 PM,87.8,64.4,46,29.86,1.9,NW,6.9,-,N/A,,Smoke,310,2013-11-19 12:10:00
6:10 PM,86.0,64.4,48,29.86,1.6,NW,4.6,-,N/A,,Smoke,320,2013-11-19 12:40:00
7:10 PM,86.0,59.0,40,29.89,1.9,NNW,3.5,-,N/A,,Smoke,340,2013-11-19 13:40:00
7:40 PM,86.0,59.0,40,29.89,1.7,North,5.8,-,N/A,,Smoke,10,2013-11-19 14:10:00
8:10 PM,86.0,59.0,40,29.89,1.7,NNW,4.6,-,N/A,,Smoke,340,2013-11-19 14:40:00
8:30 PM,82,60,37,29.91,1,,6.9,,,,Smoke,,2013-11-19 15:00:00
10:10 PM,84.2,59.0,42,29.92,1.4,NE,4.6,-,N/A,,Smoke,50,2013-11-19 16:40:00
10:40 PM,84.2,60.8,45,29.92,1.4,North,3.5,-,N/A,,Smoke,360,2013-11-19 17:10:00
11:10 PM,82.4,60.8,48,29.92,1.6,NW,3.5,-,N/A,,Smoke,310,2013-11-19 17:40:00
11:30 PM,75,65,62,29.91,1,Calm,Calm,,,,Smoke,,2013-11-19 18:00:00
11:40 PM,80.6,60.8,51,29.92,1.6,Calm,Calm,-,N/A,,Smoke,0,2013-11-19 18:10:00